Tracking 25193 objects as of 19-Jan-2022
HD Live streaming from Space Station
objects crossing your sky now

SL-14 R/B

Track SL-14 R/B now!
10-day predictions
SL-14 R/B is classified as:


NORAD ID: 15945
Int'l Code: 1985-069B
Perigee: 609.1 km
Apogee: 637.8 km
Inclination: 82.5 °
Period: 97.0 minutes
Semi major axis: 6994 km
RCS: 5.1348 m2 (large)
Launch date: August 8, 1985
Source: Commonwealth of Independent States (former USSR) (CIS)
Launch site: PLESETSK MISSILE AND SPACE COMPLEX (PKMTR)

Note: This is a ROCKET BODY
aabbcc
Your satellite tracking list
Your tracking list is empty




NASA's NSSDC Master Catalog

Two Line Element Set (TLE):
1 15945U 85069B   22018.43802196  .00000216  00000-0  22818-4 0  9992
2 15945  82.5280   2.9988 0020521 145.6754 214.5793 14.84124828948553
Source of the keplerian elements: AFSPC